Regional Weather Roundup
Issued by NWS Charleston, WV

Home | Current Version | Previous Version | Graphics & Text | Print | Product List | Glossary On
Versions: 1 2 3 4 5 6 7 8 9 10 11 12 13 14 15 16 17 18 19 20 21 22 23 24 25 26 27 28 29 30 31 32 33 34 35 36 37 38 39 40 41 42 43 44 45 46 47 48 49 50
000
ASUS41 KRLX 051510
RWRRLX
West Virginia Regional Weather Roundup
National Weather Service Charleston WV
1100 AM EDT TUE MAY 05 2015

Note: "fair" indicates few or no clouds below 12,000 feet with no
significant weather and/or obstructions to visibility.

WVZ003-051600-
Northern Panhandle of West Virginia

CITY           SKY/WX    TMP DP  RH WIND       PRES   REMARKS
WHEELING       CLOUDY    65  60  84 W6        30.30R
$$

WVZ009-051600-
Northwest West Virginia

CITY           SKY/WX    TMP DP  RH WIND       PRES   REMARKS
PARKERSBURG    PTSUNNY   72  59  63 CALM      30.32S
$$

WVZ006-051600-
Western West Virginia

CITY           SKY/WX    TMP DP  RH WIND       PRES   REMARKS
HUNTINGTON     SUNNY     75  55  49 CALM      30.30S
$$

WVZ015-051600-
West Central West Virginia

CITY           SKY/WX    TMP DP  RH WIND       PRES   REMARKS
CHARLESTON     MOSUNNY   74  54  49 SW5       30.32R
$$

WVZ022-031-051600-
North Central West Virginia

CITY           SKY/WX    TMP DP  RH WIND       PRES   REMARKS
CLARKSBURG     PTSUNNY   72  54  53 W5        30.31R
MORGANTOWN     PTSUNNY   71  56  58 N5        30.32R
$$

WVZ025-035-042-045-051600-
Southern West Virginia

CITY           SKY/WX    TMP DP  RH WIND       PRES   REMARKS
BECKLEY        SUNNY     73  50  44 NW6       30.37S
LOGAN            N/A     73  54  49 CALM      30.32S
BLUEFIELD      SUNNY     74  47  38 W8        30.40S
LEWISBURG      SUNNY     73  50  43 SW6       30.36S
$$

WVZ047-051600-
Northern Mountains of West Virginia

CITY           SKY/WX    TMP DP  RH WIND       PRES   REMARKS
ELKINS         MOSUNNY   74  53  48 SW9       30.34S
$$

WVZ052-051600-
Eastern Panhandle of West Virginia

CITY           SKY/WX    TMP DP  RH WIND       PRES   REMARKS
MARTINSBURG    PTSUNNY   76  56  49 S3        30.28R
PETERSBURG     PTSUNNY   77  54  44 E3        30.29S
$$


USA.gov is the U.S. government's official web portal to all federal, state and local government web resources and services.